Location: Most
(50.5330°N, 13.6500°E)
Time: 04:13:24
(UTC+02:00)

ISS - Pass Details

Date: 27 May 2021
Orbit: 417 x 422 km, 51.6° (Epoch: 13 June)

Event Time Altitude Azimuth Distance (km) Brightness Sun altitude
Rises 22:13:54 0° 286° (WNW) 2,367 1.1 -9.0°
Reaches altitude 10° 22:16:02 10° 282° (WNW) 1,502 -0.1 -9.2°
Maximum altitude 22:19:19 52° 205° (SSW) 529 -3.4 -9.5°
Enters shadow 22:22:01 14° 130° (SE) 1,267 -2.0 -9.8°
